Location: Bidwell Hollow
(37.7387°N, 90.1707°W)
Time: 19:34:25
(UTC+00:00)

ACS3 Solar Sail - Visible Passes

Search period start: 09 November 2025 00:00
Search period end: 19 November 2025 00:00
Orbit: 917 x 987 km, 97.3° (Epoch: 08 November)

Date Brightness Start Highest point End Pass type
(mag) Time Alt. Az. Time Alt. Az. Time Alt. Az.
09 Nov 4.0 09:17:34 10° NNE 09:18:16 14° NNE 09:18:16 14° NNE visible
10 Nov 4.0 09:35:30 10° N 09:36:12 14° N 09:36:12 14° N visible
11 Nov 3.9 09:53:30 10° N 09:54:05 13° N 09:54:05 13° N visible
12 Nov 3.9 10:11:34 10° N 10:11:55 12° N 10:11:55 12° N visible
